Location: Dackenheim
(49.5215°N, 8.1854°E)
Time: 20:05:17
(UTC+00:00)

Meteor 2-13 Rocket - Pass Details

Date: 19 May 2025
Orbit: 934 x 958 km, 82.5° (Epoch: 20 June)

Event Time Altitude Azimuth Distance (km) Brightness Sun altitude
Exits shadow 22:19:05 32° 177° (S) 1,590 5.1 -19.0°
Maximum altitude 22:22:08 77° 97° (E) 984 4.4 -19.2°
Drops below altitude 10° 22:28:16 10° 13° (NNE) 2,687 7.7 -19.4°
Sets 22:30:46 0° 12° (NNE) 3,633 8.6 -19.5°
